Location: Home
(42.5358°N, 72.7383°W)
Time: 02:30:08
(UTC-05:00)

Vanguard 2 - Pass Details

Date: 03 December 2021
Orbit: 553 x 2936 km, 32.9° (Epoch: 19 January)

Event Time Altitude Azimuth Distance (km) Brightness Sun altitude
Rises 12:42:56 0° 220° (SW) 2,810 11.5 23.7°
Reaches altitude 10° 12:45:29 10° 201° (SSW) 2,048 11.8 23.6°
Maximum altitude 12:48:50 20° 154° (SSE) 1,731 10.3 23.4°
Drops below altitude 10° 12:53:07 10° 109° (ESE) 2,700 10.4 23.2°
Sets 12:57:08 0° 94° (E) 4,080 11.1 22.9°
